Regional Weather Roundup
Issued by NWS

Home | Current Version | Previous Version | Text Only | Print | Product List | Glossary On
Versions: 1 2 3 4 5 6 7 8 9 10 11 12 13 14 15 16 17 18 19 20 21 22 23 24 25 26 27 28 29 30 31 32 33 34 35 36 37 38 39 40 41 42 43 44 45 46 47 48 49 50
000
ASUS43 KDMX 281506
RWRIA

WEATHER ROUNDUP FOR IOWA
NATIONAL WEATHER SERVICE DES MOINES IA
1000 AM CDT TUE MAR 28 2017

NOTE: "FAIR" INDICATES FEW OR NO CLOUDS BELOW 12,000 FEET WITH NO
SIGNIFICANT WEATHER AND/OR OBSTRUCTIONS TO VISIBILITY.

* - THESE STATIONS ARE NOT NWS STATIONS...THUS NOT UNDER NWS
QUALITY CONTROL.  THEY ALSO DO NOT REPORT WEATHER SUCH
AS PRECIPITATION OR FOG.

IAZ001>003-012>014-020>022-031>034-043>046-281600-
   NORTHWEST IOWA

CITY           SKY/WX    TMP DP  RH WIND       PRES   REMARKS
CARROLL *      CLOUDY    45  43  93 NE5       30.11S
CHEROKEE *     MOSUNNY   42  40  94 NE3       30.12S
DENISON *      PTSUNNY   45  41  87 N6        30.12S
LE MARS *      MOSUNNY   45  41  87 CALM      30.13S
ORANGE CITY *  SUNNY     45  43  93 E3        30.12S
SHELDON *      SUNNY     46  41  81 CALM      30.11S
SIOUX CITY     SUNNY     43  40  89 CALM      30.13R
SPENCER        SUNNY     48  41  76 NE5       30.12
STORM LAKE *   MOSUNNY   43  41  93 NE9       30.11R
$$

IAZ055>058-069>071-079>083-090>094-281600-
   SOUTHWEST IOWA

CITY           SKY/WX    TMP DP  RH WIND       PRES   REMARKS
ATLANTIC *     CLOUDY    46  41  81 NE8       30.11R
AUDUBON *      CLOUDY    46  43  87 E6        30.12R
CLARINDA *     CLOUDY    48  43  81 E6        30.13R
COUNCIL BLFS * CLOUDY    45  45 100 CALM      30.11R
CRESTON *      CLOUDY    45  41  87 E7        30.12R
HARLAN  *      CLOUDY    46  45  93 E9        30.14R
LAMONI         CLOUDY    48  41  76 N9        30.09
RED OAK *      CLOUDY    46  41  81 E9        30.12R
SHENANDOAH *   CLOUDY    46  41  81 E9        30.12R
$$

IAZ047>049-059>061-072>074-084-281600-
   CENTRAL IOWA

CITY           SKY/WX    TMP DP  RH WIND       PRES   REMARKS
AMES           CLOUDY    47  44  90 NE7       30.12
ANKENY *       CLOUDY    46  43  87 NE7       30.13R
BOONE *        CLOUDY    45  45 100 NE8       30.11R
CHARITON *     CLOUDY    46  43  87 N3        30.10R
DES MOINES     CLOUDY    48  42  80 NE6       30.11R
GRINNELL*      CLOUDY    46  43  90 NE5       30.13R
KNOXVILLE *    CLOUDY    48  41  76 NE7       30.10R
MARSHALLTOWN   CLOUDY    46  44  93 NE7       30.12R
NEWTON *       CLOUDY    46  43  87 NE5       30.11R
PELLA *        CLOUDY    47  43  85 NE3       30.12R
PERRY *        CLOUDY    46  43  88 NE6       30.11S
$$

IAZ004>006-015-016-023>025-035-036-281600-
   NORTH CENTRAL IOWA

CITY           SKY/WX    TMP DP  RH WIND       PRES   REMARKS
ALGONA *       SUNNY     43  43 100 E5        30.12S
CLARION *      CLOUDY    45  45 100 E7        30.13R
ESTHERVILLE    SUNNY     44  41  89 E7        30.12R
FORT DODGE *   MOSUNNY   43  41  93 N3        30.13S
MASON CITY     CLOUDY    44  40  85 E7        30.14R
FOREST CITY *    N/A     45  41  87 SE7       30.13R
WEBSTER CITY * CLOUDY    45  41  87 NE6       30.11R
IOWA FALLS *   CLOUDY    46  42  86 NE8       30.13R
$$

IAZ007>011-017>019-026>030-037>042-050>054-066-281600-
   NORTHEAST IOWA

CITY           SKY/WX    TMP DP  RH WIND       PRES   REMARKS
CEDAR RAPIDS   CLOUDY    48  45  89 NE6       30.10
CHARLES CITY * CLOUDY    46  45  93 CALM      30.13R
CLINTON *      CLOUDY    46  44  93 E10       30.12R
DECORAH *      MOSUNNY   45  39  81 NE6       30.12R
DUBUQUE        CLOUDY    43  42  97 E12       30.12R
MONTICELLO *   CLOUDY    46  46 100 NE9       30.11R FOG
OELWEIN *      CLOUDY    46  45  93 E8        30.13R
WATERLOO       CLOUDY    47  41  80 E7        30.13R
$$

IAZ064-065-067-068-078-281600-
   EAST CENTRAL IOWA

CITY           SKY/WX    TMP DP  RH WIND       PRES   REMARKS
DAVENPORT      CLOUDY    47  45  93 E12       30.12R FOG
IOWA CITY      CLOUDY    50  44  80 NE7       30.12
MUSCATINE *    CLOUDY    50  46  87 NE7       30.12R
QUAD CITIES    LGT RAIN  47  44  90 E17       30.10S FOG
$$

IAZ062-063-075>077-085>089-095>099-281600-
   SOUTHEAST IOWA

CITY           SKY/WX    TMP DP  RH WIND       PRES   REMARKS
BURLINGTON     CLOUDY    50  47  89 NE7       30.10
FAIRFIELD *    CLOUDY    48  46  93 NE8       30.10S
FORT MADISON * CLOUDY    52  50  93 E5        30.11R
KEOKUK *       CLOUDY    52  48  87 NE5       30.10R
OSKALOOSA *    CLOUDY    47  43  88 NE6       30.11R
CENTERVILLE *  CLOUDY    48  45  87 N5        30.11S
OTTUMWA        CLOUDY    48  45  89 NE7       30.10
WASHINGTON *   CLOUDY    48  48 100 NE7       30.13R
$$

ABBREVIATIONS USED IN REMARKS
   TC - TEMPERATURES IN CELSIUS
  WCI - WIND CHILL INDEX
   HX - HEAT INDEX
  VSB - VISIBILITY
$$





USA.gov is the U.S. government's official web portal to all federal, state and local government web resources and services.